owner,sensor,date,latitude,longitude,air_temperature,qcFlag 
DISL,ioos:station:DISL:KATA:1,2017-01-01T06:30:00Z,30.2583,-88.2131,16.74,1111122 
DISL,ioos:station:DISL:KATA:1,2017-01-01T07:00:00Z,30.2583,-88.2131,16.57,1111122 
DISL,ioos:station:DISL:KATA:1,2017-01-01T07:30:00Z,30.2583,-88.2131,16.26,1111122 
DISL,ioos:station:DISL:KATA:1,2017-01-01T08:00:00Z,30.2583,-88.2131,16.4,1111122 
DISL,ioos:station:DISL:KATA:1,2017-01-01T08:30:00Z,30.2583,-88.2131,15.65,1111122 
DISL,ioos:station:DISL:KATA:1,2017-01-01T09:00:00Z,30.2583,-88.2131,16.16,1111122 
DISL,ioos:station:DISL:KATA:1,2017-01-01T09:30:00Z,30.2583,-88.2131,16.09,1111122 
DISL,ioos:station:DISL:KATA:1,2017-01-01T10:00:00Z,30.2583,-88.2131,15.85,1111122 
DISL,ioos:station:DISL:KATA:1,2017-01-01T10:30:00Z,30.2583,-88.2131,15.45,1111122 
DISL,ioos:station:DISL:KATA:1,2017-01-01T11:00:00Z,30.2583,-88.2131,15.08,1111122 
DISL,ioos:station:DISL:KATA:1,2017-01-01T11:30:00Z,30.2583,-88.2131,15.15,1111122 
DISL,ioos:station:DISL:KATA:1,2017-01-01T12:00:00Z,30.2583,-88.2131,15.05,1111122 
DISL,ioos:station:DISL:KATA:1,2017-01-01T12:30:00Z,30.2583,-88.2131,15.15,1111122 
DISL,ioos:station:DISL:KATA:1,2017-01-01T13:00:00Z,30.2583,-88.2131,15.39,1111122 
DISL,ioos:station:DISL:KATA:1,2017-01-01T13:30:00Z,30.2583,-88.2131,15.12,1111122 
DISL,ioos:station:DISL:KATA:1,2017-01-01T14:00:00Z,30.2583,-88.2131,14.81,1111122 
DISL,ioos:station:DISL:KATA:1,2017-01-01T14:30:00Z,30.2583,-88.2131,15.46,1111122 
DISL,ioos:station:DISL:KATA:1,2017-01-01T15:00:00Z,30.2583,-88.2131,15.59,1111122 
DISL,ioos:station:DISL:KATA:1,2017-01-01T15:30:00Z,30.2583,-88.2131,15.79,1111122 
DISL,ioos:station:DISL:KATA:1,2017-01-01T16:00:00Z,30.2583,-88.2131,16.12,1111122 
DISL,ioos:station:DISL:KATA:1,2017-01-01T16:30:00Z,30.2583,-88.2131,15.72,1111122 
DISL,ioos:station:DISL:KATA:1,2017-01-01T17:00:00Z,30.2583,-88.2131,16.09,1111122 
DISL,ioos:station:DISL:KATA:1,2017-01-01T17:30:00Z,30.2583,-88.2131,16.08,1111122 
DISL,ioos:station:DISL:KATA:1,2017-01-01T18:00:00Z,30.2583,-88.2131,15.95,1111122 
DISL,ioos:station:DISL:KATA:1,2017-01-01T18:30:00Z,30.2583,-88.2131,15.97,1111122 
DISL,ioos:station:DISL:KATA:1,2017-01-01T19:00:00Z,30.2583,-88.2131,16.38,1111122 
DISL,ioos:station:DISL:KATA:1,2017-01-01T19:30:00Z,30.2583,-88.2131,15.97,1111122 
DISL,ioos:station:DISL:KATA:1,2017-01-01T20:00:00Z,30.2583,-88.2131,15.63,1111122 
DISL,ioos:station:DISL:KATA:1,2017-01-01T20:30:00Z,30.2583,-88.2131,15.63,1111122 
DISL,ioos:station:DISL:KATA:1,2017-01-01T21:00:00Z,30.2583,-88.2131,15.46,1111122 
DISL,ioos:station:DISL:KATA:1,2017-01-01T21:30:00Z,30.2583,-88.2131,15.33,1111122 
DISL,ioos:station:DISL:KATA:1,2017-01-01T22:00:00Z,30.2583,-88.2131,15.23,1111122 
DISL,ioos:station:DISL:KATA:1,2017-01-01T22:30:00Z,30.2583,-88.2131,15.82,1111122 
DISL,ioos:station:DISL:KATA:1,2017-01-01T23:00:00Z,30.2583,-88.2131,15.17,1111122 
DISL,ioos:station:DISL:KATA:1,2017-01-01T23:30:00Z,30.2583,-88.2131,15.75,1111122 
DISL,ioos:station:DISL:KATA:1,2017-01-02T00:00:00Z,30.2583,-88.2131,15.07,1111122 
DISL,ioos:station:DISL:KATA:1,2017-01-02T00:30:00Z,30.2583,-88.2131,14.94,1111122 
DISL,ioos:station:DISL:KATA:1,2017-01-02T01:00:00Z,30.2583,-88.2131,15.14,1111122 
DISL,ioos:station:DISL:KATA:1,2017-01-02T01:30:00Z,30.2583,-88.2131,15.45,1111122 
DISL,ioos:station:DISL:KATA:1,2017-01-02T02:00:00Z,30.2583,-88.2131,14.97,1111122 
DISL,ioos:station:DISL:KATA:1,2017-01-02T02:30:00Z,30.2583,-88.2131,14.77,1111122 
DISL,ioos:station:DISL:KATA:1,2017-01-02T03:00:00Z,30.2583,-88.2131,13.72,1111122 
DISL,ioos:station:DISL:KATA:1,2017-01-02T03:30:00Z,30.2583,-88.2131,14.33,1111122 
DISL,ioos:station:DISL:KATA:1,2017-01-02T04:00:00Z,30.2583,-88.2131,14.13,1111122 
DISL,ioos:station:DISL:KATA:1,2017-01-02T04:30:00Z,30.2583,-88.2131,13.89,1111122 
DISL,ioos:station:DISL:KATA:1,2017-01-02T05:00:00Z,30.2583,-88.2131,13.86,1111122 
DISL,ioos:station:DISL:KATA:1,2017-01-02T05:30:00Z,30.2583,-88.2131,13.83,1111122 
DISL,ioos:station:DISL:KATA:1,2017-01-02T06:00:00Z,30.2583,-88.2131,13.9,1111122 
DISL,ioos:station:DISL:KATA:1,2017-01-02T06:30:00Z,30.2583,-88.2131,14.07,1111122 
DISL,ioos:station:DISL:KATA:1,2017-01-02T07:00:00Z,30.2583,-88.2131,14.07,1111122 
DISL,ioos:station:DISL:KATA:1,2017-01-02T07:30:00Z,30.2583,-88.2131,14.03,1111122 
DISL,ioos:station:DISL:KATA:1,2017-01-02T08:00:00Z,30.2583,-88.2131,14.2,1111122 
DISL,ioos:station:DISL:KATA:1,2017-01-02T08:30:00Z,30.2583,-88.2131,14.16,1111122 
DISL,ioos:station:DISL:KATA:1,2017-01-02T09:00:00Z,30.2583,-88.2131,14.13,1111122 
DISL,ioos:station:DISL:KATA:1,2017-01-02T09:30:00Z,30.2583,-88.2131,14.2,1111122 
DISL,ioos:station:DISL:KATA:1,2017-01-02T10:00:00Z,30.2583,-88.2131,14.37,1111122 
DISL,ioos:station:DISL:KATA:1,2017-01-02T10:30:00Z,30.2583,-88.2131,14.26,1111122 
DISL,ioos:station:DISL:KATA:1,2017-01-02T11:00:00Z,30.2583,-88.2131,14.29,1111122 
DISL,ioos:station:DISL:KATA:1,2017-01-02T11:30:00Z,30.2583,-88.2131,14.16,1111122 
DISL,ioos:station:DISL:KATA:1,2017-01-02T12:00:00Z,30.2583,-88.2131,14.47,1111122 
DISL,ioos:station:DISL:KATA:1,2017-01-02T12:30:00Z,30.2583,-88.2131,14.73,1111122 
DISL,ioos:station:DISL:KATA:1,2017-01-02T13:00:00Z,30.2583,-88.2131,15.04,1111122 
DISL,ioos:station:DISL:KATA:1,2017-01-02T13:30:00Z,30.2583,-88.2131,14.63,1111122 
DISL,ioos:station:DISL:KATA:1,2017-01-02T14:00:00Z,30.2583,-88.2131,15.07,1111122 
DISL,ioos:station:DISL:KATA:1,2017-01-02T14:30:00Z,30.2583,-88.2131,15.17,1111122 
DISL,ioos:station:DISL:KATA:1,2017-01-02T15:00:00Z,30.2583,-88.2131,15.11,1111122 
DISL,ioos:station:DISL:KATA:1,2017-01-02T15:30:00Z,30.2583,-88.2131,15.14,1111122 
DISL,ioos:station:DISL:KATA:1,2017-01-02T16:00:00Z,30.2583,-88.2131,15.14,1111122 
DISL,ioos:station:DISL:KATA:1,2017-01-02T16:30:00Z,30.2583,-88.2131,15.24,1111122 
DISL,ioos:station:DISL:KATA:1,2017-01-02T17:00:00Z,30.2583,-88.2131,15.29,1111122 
DISL,ioos:station:DISL:KATA:1,2017-01-02T17:30:00Z,30.2583,-88.2131,15.29,1111122 
DISL,ioos:station:DISL:KATA:1,2017-01-02T18:00:00Z,30.2583,-88.2131,15.16,1111122 
DISL,ioos:station:DISL:KATA:1,2017-01-02T18:30:00Z,30.2583,-88.2131,14.88,1111122 
DISL,ioos:station:DISL:KATA:1,2017-01-02T19:00:00Z,30.2583,-88.2131,15.27,1111122 
DISL,ioos:station:DISL:KATA:1,2017-01-02T19:30:00Z,30.2583,-88.2131,14.96,1111122 
DISL,ioos:station:DISL:KATA:1,2017-01-02T20:00:00Z,30.2583,-88.2131,15.0,1111122 
DISL,ioos:station:DISL:KATA:1,2017-01-02T20:30:00Z,30.2583,-88.2131,14.16,1111122 
DISL,ioos:station:DISL:KATA:1,2017-01-02T21:00:00Z,30.2583,-88.2131,14.22,1111122 
DISL,ioos:station:DISL:KATA:1,2017-01-02T21:30:00Z,30.2583,-88.2131,14.97,1111122 
DISL,ioos:station:DISL:KATA:1,2017-01-02T22:00:00Z,30.2583,-88.2131,16.29,1111122 
DISL,ioos:station:DISL:KATA:1,2017-01-02T22:30:00Z,30.2583,-88.2131,15.68,1111122 
DISL,ioos:station:DISL:KATA:1,2017-01-02T23:00:00Z,30.2583,-88.2131,15.89,1111122 
DISL,ioos:station:DISL:KATA:1,2017-01-02T23:30:00Z,30.2583,-88.2131,14.02,1111122 
DISL,ioos:station:DISL:KATA:1,2017-01-03T00:00:00Z,30.2583,-88.2131,13.04,1111122 
DISL,ioos:station:DISL:KATA:1,2017-01-03T00:30:00Z,30.2583,-88.2131,13.14,1111122 
DISL,ioos:station:DISL:KATA:1,2017-01-03T01:00:00Z,30.2583,-88.2131,13.18,1111122 
DISL,ioos:station:DISL:KATA:1,2017-01-03T01:30:00Z,30.2583,-88.2131,13.46,1111122 
DISL,ioos:station:DISL:KATA:1,2017-01-03T02:00:00Z,30.2583,-88.2131,13.42,1111122 
DISL,ioos:station:DISL:KATA:1,2017-01-03T02:30:00Z,30.2583,-88.2131,13.83,1111122 
DISL,ioos:station:DISL:KATA:1,2017-01-03T03:00:00Z,30.2583,-88.2131,15.31,1111122 
DISL,ioos:station:DISL:KATA:1,2017-01-03T03:30:00Z,30.2583,-88.2131,15.11,1111122 
DISL,ioos:station:DISL:KATA:1,2017-01-03T04:00:00Z,30.2583,-88.2131,15.04,1111122 
DISL,ioos:station:DISL:KATA:1,2017-01-03T04:30:00Z,30.2583,-88.2131,15.45,1111122 
DISL,ioos:station:DISL:KATA:1,2017-01-03T05:00:00Z,30.2583,-88.2131,15.17,1111122 
DISL,ioos:station:DISL:KATA:1,2017-01-03T05:30:00Z,30.2583,-88.2131,15.17,1111122 
DISL,ioos:station:DISL:KATA:1,2017-01-03T06:00:00Z,30.2583,-88.2131,15.07,1111122 
DISL,ioos:station:DISL:KATA:1,2017-01-03T06:30:00Z,30.2583,-88.2131,13.72,1111122 
DISL,ioos:station:DISL:KATA:1,2017-01-03T07:00:00Z,30.2583,-88.2131,14.16,1111122 
DISL,ioos:station:DISL:KATA:1,2017-01-03T07:30:00Z,30.2583,-88.2131,14.06,1111122 
DISL,ioos:station:DISL:KATA:1,2017-01-03T08:00:00Z,30.2583,-88.2131,13.78,1111122 
DISL,ioos:station:DISL:KATA:1,2017-01-03T08:30:00Z,30.2583,-88.2131,13.24,1111122 
DISL,ioos:station:DISL:KATA:1,2017-01-03T09:00:00Z,30.2583,-88.2131,12.63,1111122 
DISL,ioos:station:DISL:KATA:1,2017-01-03T09:30:00Z,30.2583,-88.2131,12.78,1111122 
DISL,ioos:station:DISL:KATA:1,2017-01-03T10:00:00Z,30.2583,-88.2131,12.51,1111122 
DISL,ioos:station:DISL:KATA:1,2017-01-03T10:30:00Z,30.2583,-88.2131,12.21,1111122 
DISL,ioos:station:DISL:KATA:1,2017-01-03T11:00:00Z,30.2583,-88.2131,12.07,1111122 
DISL,ioos:station:DISL:KATA:1,2017-01-03T11:30:00Z,30.2583,-88.2131,12.07,1111122 
DISL,ioos:station:DISL:KATA:1,2017-01-03T12:00:00Z,30.2583,-88.2131,11.97,1111122 
DISL,ioos:station:DISL:KATA:1,2017-01-03T12:30:00Z,30.2583,-88.2131,11.9,1111122 
DISL,ioos:station:DISL:KATA:1,2017-01-03T13:00:00Z,30.2583,-88.2131,12.0,1111122 
DISL,ioos:station:DISL:KATA:1,2017-01-03T13:30:00Z,30.2583,-88.2131,12.04,1111122 
DISL,ioos:station:DISL:KATA:1,2017-01-03T14:00:00Z,30.2583,-88.2131,12.04,1111122 
DISL,ioos:station:DISL:KATA:1,2017-01-03T14:30:00Z,30.2583,-88.2131,12.48,1111122 
DISL,ioos:station:DISL:KATA:1,2017-01-03T15:00:00Z,30.2583,-88.2131,12.6,1111122 
DISL,ioos:station:DISL:KATA:1,2017-01-03T15:30:00Z,30.2583,-88.2131,12.46,1111122 
DISL,ioos:station:DISL:KATA:1,2017-01-03T16:00:00Z,30.2583,-88.2131,12.49,1111122 
DISL,ioos:station:DISL:KATA:1,2017-01-03T16:30:00Z,30.2583,-88.2131,12.55,1111122 
DISL,ioos:station:DISL:KATA:1,2017-01-03T17:00:00Z,30.2583,-88.2131,12.42,1111122 
DISL,ioos:station:DISL:KATA:1,2017-01-03T17:30:00Z,30.2583,-88.2131,12.52,1111122 
DISL,ioos:station:DISL:KATA:1,2017-01-03T18:00:00Z,30.2583,-88.2131,12.83,1111122 
DISL,ioos:station:DISL:KATA:1,2017-01-03T18:30:00Z,30.2583,-88.2131,12.56,1111122 
DISL,ioos:station:DISL:KATA:1,2017-01-03T19:00:00Z,30.2583,-88.2131,11.85,1111122 
DISL,ioos:station:DISL:KATA:1,2017-01-03T19:30:00Z,30.2583,-88.2131,11.1,1111122 
DISL,ioos:station:DISL:KATA:1,2017-01-03T20:00:00Z,30.2583,-88.2131,10.97,1111122 
DISL,ioos:station:DISL:KATA:1,2017-01-03T20:30:00Z,30.2583,-88.2131,10.64,1111122 
DISL,ioos:station:DISL:KATA:1,2017-01-03T21:00:00Z,30.2583,-88.2131,10.44,1111122 
DISL,ioos:station:DISL:KATA:1,2017-01-03T21:30:00Z,30.2583,-88.2131,10.37,1111122 
DISL,ioos:station:DISL:KATA:1,2017-01-03T22:00:00Z,30.2583,-88.2131,10.48,1111122 
DISL,ioos:station:DISL:KATA:1,2017-01-03T22:30:00Z,30.2583,-88.2131,10.31,1111122 
DISL,ioos:station:DISL:KATA:1,2017-01-03T23:00:00Z,30.2583,-88.2131,10.14,1111122 
DISL,ioos:station:DISL:KATA:1,2017-01-03T23:30:00Z,30.2583,-88.2131,10.34,1111122 
DISL,ioos:station:DISL:KATA:1,2017-01-04T00:00:00Z,30.2583,-88.2131,9.97,1111122 
DISL,ioos:station:DISL:KATA:1,2017-01-04T00:30:00Z,30.2583,-88.2131,10.41,1111122 
DISL,ioos:station:DISL:KATA:1,2017-01-04T01:00:00Z,30.2583,-88.2131,10.58,1111122 
DISL,ioos:station:DISL:KATA:1,2017-01-04T01:30:00Z,30.2583,-88.2131,10.92,1111122 
DISL,ioos:station:DISL:KATA:1,2017-01-04T02:00:00Z,30.2583,-88.2131,10.81,1111122 
DISL,ioos:station:DISL:KATA:1,2017-01-04T02:30:00Z,30.2583,-88.2131,11.39,1111122 
DISL,ioos:station:DISL:KATA:1,2017-01-04T03:00:00Z,30.2583,-88.2131,11.97,1111122 
DISL,ioos:station:DISL:KATA:1,2017-01-04T03:30:00Z,30.2583,-88.2131,12.24,1111122 
DISL,ioos:station:DISL:KATA:1,2017-01-04T04:00:00Z,30.2583,-88.2131,12.48,1111122 
DISL,ioos:station:DISL:KATA:1,2017-01-04T04:30:00Z,30.2583,-88.2131,12.61,1111122 
DISL,ioos:station:DISL:KATA:1,2017-01-04T05:00:00Z,30.2583,-88.2131,12.68,1111122 
DISL,ioos:station:DISL:KATA:1,2017-01-04T05:30:00Z,30.2583,-88.2131,12.72,1111122 
DISL,ioos:station:DISL:KATA:1,2017-01-04T06:00:00Z,30.2583,-88.2131,12.85,1111122 
DISL,ioos:station:DISL:KATA:1,2017-01-04T06:30:00Z,30.2583,-88.2131,12.85,1111122 
DISL,ioos:station:DISL:KATA:1,2017-01-04T07:00:00Z,30.2583,-88.2131,12.72,1111122 
DISL,ioos:station:DISL:KATA:1,2017-01-04T07:30:00Z,30.2583,-88.2131,12.68,1111122 
DISL,ioos:station:DISL:KATA:1,2017-01-04T08:00:00Z,30.2583,-88.2131,12.58,1111122 
DISL,ioos:station:DISL:KATA:1,2017-01-04T08:30:00Z,30.2583,-88.2131,12.55,1111122 
DISL,ioos:station:DISL:KATA:1,2017-01-04T09:00:00Z,30.2583,-88.2131,12.27,1111122 
DISL,ioos:station:DISL:KATA:1,2017-01-04T09:30:00Z,30.2583,-88.2131,12.38,1111122 
DISL,ioos:station:DISL:KATA:1,2017-01-04T10:00:00Z,30.2583,-88.2131,12.31,1111122 
DISL,ioos:station:DISL:KATA:1,2017-01-04T10:30:00Z,30.2583,-88.2131,11.66,1111122 
DISL,ioos:station:DISL:KATA:1,2017-01-04T11:00:00Z,30.2583,-88.2131,10.75,1111122 
DISL,ioos:station:DISL:KATA:1,2017-01-04T11:30:00Z,30.2583,-88.2131,10.0,1111122 
DISL,ioos:station:DISL:KATA:1,2017-01-04T12:00:00Z,30.2583,-88.2131,9.36,1111122 
DISL,ioos:station:DISL:KATA:1,2017-01-04T12:30:00Z,30.2583,-88.2131,9.36,1111122 
DISL,ioos:station:DISL:KATA:1,2017-01-04T13:00:00Z,30.2583,-88.2131,9.42,1111122 
DISL,ioos:station:DISL:KATA:1,2017-01-04T13:30:00Z,30.2583,-88.2131,9.56,1111122 
DISL,ioos:station:DISL:KATA:1,2017-01-04T14:00:00Z,30.2583,-88.2131,9.7,1111122 
DISL,ioos:station:DISL:KATA:1,2017-01-04T14:30:00Z,30.2583,-88.2131,9.76,1111122 
DISL,ioos:station:DISL:KATA:1,2017-01-04T15:00:00Z,30.2583,-88.2131,10.27,1111122 
DISL,ioos:station:DISL:KATA:1,2017-01-04T15:30:00Z,30.2583,-88.2131,10.51,1111122 
DISL,ioos:station:DISL:KATA:1,2017-01-04T16:00:00Z,30.2583,-88.2131,10.71,1111122 
DISL,ioos:station:DISL:KATA:1,2017-01-04T16:30:00Z,30.2583,-88.2131,10.68,1111122 
DISL,ioos:station:DISL:KATA:1,2017-01-04T17:00:00Z,30.2583,-88.2131,11.05,1111122 
DISL,ioos:station:DISL:KATA:1,2017-01-04T17:30:00Z,30.2583,-88.2131,11.05,1111122 
DISL,ioos:station:DISL:KATA:1,2017-01-04T18:00:00Z,30.2583,-88.2131,11.18,1111122 
DISL,ioos:station:DISL:KATA:1,2017-01-04T18:30:00Z,30.2583,-88.2131,11.18,1111122 
DISL,ioos:station:DISL:KATA:1,2017-01-04T19:00:00Z,30.2583,-88.2131,11.25,1111122 
DISL,ioos:station:DISL:KATA:1,2017-01-04T19:30:00Z,30.2583,-88.2131,11.08,1111122 
DISL,ioos:station:DISL:KATA:1,2017-01-04T20:00:00Z,30.2583,-88.2131,11.08,1111122 
DISL,ioos:station:DISL:KATA:1,2017-01-04T20:30:00Z,30.2583,-88.2131,10.78,1111122 
DISL,ioos:station:DISL:KATA:1,2017-01-04T21:00:00Z,30.2583,-88.2131,10.47,1111122 
DISL,ioos:station:DISL:KATA:1,2017-01-04T21:30:00Z,30.2583,-88.2131,10.31,1111122 
DISL,ioos:station:DISL:KATA:1,2017-01-04T22:00:00Z,30.2583,-88.2131,10.2,1111122 
DISL,ioos:station:DISL:KATA:1,2017-01-04T22:30:00Z,30.2583,-88.2131,9.97,1111122 
DISL,ioos:station:DISL:KATA:1,2017-01-04T23:00:00Z,30.2583,-88.2131,9.8,1111122 
DISL,ioos:station:DISL:KATA:1,2017-01-04T23:30:00Z,30.2583,-88.2131,8.88,1111122 
DISL,ioos:station:DISL:KATA:1,2017-01-05T00:00:00Z,30.2583,-88.2131,8.07,1111122 
DISL,ioos:station:DISL:KATA:1,2017-01-05T00:30:00Z,30.2583,-88.2131,7.734,1111122 
DISL,ioos:station:DISL:KATA:1,2017-01-05T01:00:00Z,30.2583,-88.2131,7.299,1111122 
DISL,ioos:station:DISL:KATA:1,2017-01-05T01:30:00Z,30.2583,-88.2131,7.233,1111122 
DISL,ioos:station:DISL:KATA:1,2017-01-05T02:00:00Z,30.2583,-88.2131,6.995,1111122 
DISL,ioos:station:DISL:KATA:1,2017-01-05T02:30:00Z,30.2583,-88.2131,6.587,1111122 
DISL,ioos:station:DISL:KATA:1,2017-01-05T03:00:00Z,30.2583,-88.2131,6.316,1111122 
DISL,ioos:station:DISL:KATA:1,2017-01-05T03:30:00Z,30.2583,-88.2131,6.284,1111122 
DISL,ioos:station:DISL:KATA:1,2017-01-05T04:00:00Z,30.2583,-88.2131,6.186,1111122 
DISL,ioos:station:DISL:KATA:1,2017-01-05T04:30:00Z,30.2583,-88.2131,6.8,1111122 
DISL,ioos:station:DISL:KATA:1,2017-01-05T05:00:00Z,30.2583,-88.2131,6.76,1111122 
DISL,ioos:station:DISL:KATA:1,2017-01-05T05:30:00Z,30.2583,-88.2131,6.42,1111122 
DISL,ioos:station:DISL:KATA:1,2017-01-05T06:00:00Z,30.2583,-88.2131,6.389,1111122 
DISL,ioos:station:DISL:KATA:1,2017-01-05T06:30:00Z,30.2583,-88.2131,6.496,1111122 
DISL,ioos:station:DISL:KATA:1,2017-01-05T07:00:00Z,30.2583,-88.2131,6.328,1111122 
DISL,ioos:station:DISL:KATA:1,2017-01-05T07:30:00Z,30.2583,-88.2131,6.33,1111122 
DISL,ioos:station:DISL:KATA:1,2017-01-05T08:00:00Z,30.2583,-88.2131,6.331,1111122 
DISL,ioos:station:DISL:KATA:1,2017-01-05T08:30:00Z,30.2583,-88.2131,6.433,1111122 
DISL,ioos:station:DISL:KATA:1,2017-01-05T09:00:00Z,30.2583,-88.2131,6.67,1111122 
DISL,ioos:station:DISL:KATA:1,2017-01-05T09:30:00Z,30.2583,-88.2131,6.875,1111122 
DISL,ioos:station:DISL:KATA:1,2017-01-05T10:00:00Z,30.2583,-88.2131,6.875,1111122 
DISL,ioos:station:DISL:KATA:1,2017-01-05T10:30:00Z,30.2583,-88.2131,6.909,1111122 
DISL,ioos:station:DISL:KATA:1,2017-01-05T11:00:00Z,30.2583,-88.2131,7.079,1111122 
DISL,ioos:station:DISL:KATA:1,2017-01-05T11:30:00Z,30.2583,-88.2131,6.84,1111122 
DISL,ioos:station:DISL:KATA:1,2017-01-05T12:00:00Z,30.2583,-88.2131,6.768,1111122 
DISL,ioos:station:DISL:KATA:1,2017-01-05T12:30:00Z,30.2583,-88.2131,6.727,1111122 
DISL,ioos:station:DISL:KATA:1,2017-01-05T13:00:00Z,30.2583,-88.2131,6.829,1111122 
DISL,ioos:station:DISL:KATA:1,2017-01-05T13:30:00Z,30.2583,-88.2131,7.201,1111122 
DISL,ioos:station:DISL:KATA:1,2017-01-05T14:00:00Z,30.2583,-88.2131,7.572,1111122 
DISL,ioos:station:DISL:KATA:1,2017-01-05T14:30:00Z,30.2583,-88.2131,7.871,1111122 
DISL,ioos:station:DISL:KATA:1,2017-01-05T15:00:00Z,30.2583,-88.2131,8.07,1111122 
DISL,ioos:station:DISL:KATA:1,2017-01-05T15:30:00Z,30.2583,-88.2131,8.3,1111122 
DISL,ioos:station:DISL:KATA:1,2017-01-05T16:00:00Z,30.2583,-88.2131,8.2,1111122 
DISL,ioos:station:DISL:KATA:1,2017-01-05T16:30:00Z,30.2583,-88.2131,8.13,1111122 
DISL,ioos:station:DISL:KATA:1,2017-01-05T17:00:00Z,30.2583,-88.2131,8.23,1111122 
DISL,ioos:station:DISL:KATA:1,2017-01-05T17:30:00Z,30.2583,-88.2131,8.71,1111122 
DISL,ioos:station:DISL:KATA:1,2017-01-05T18:00:00Z,30.2583,-88.2131,8.88,1111122 
DISL,ioos:station:DISL:KATA:1,2017-01-05T18:30:00Z,30.2583,-88.2131,9.05,1111122 
DISL,ioos:station:DISL:KATA:1,2017-01-05T19:00:00Z,30.2583,-88.2131,9.35,1111122 
DISL,ioos:station:DISL:KATA:1,2017-01-05T19:30:00Z,30.2583,-88.2131,9.69,1111122 
DISL,ioos:station:DISL:KATA:1,2017-01-05T20:00:00Z,30.2583,-88.2131,10.0,1111122 
DISL,ioos:station:DISL:KATA:1,2017-01-05T20:30:00Z,30.2583,-88.2131,10.07,1111122 
DISL,ioos:station:DISL:KATA:1,2017-01-05T21:00:00Z,30.2583,-88.2131,10.1,1111122 
DISL,ioos:station:DISL:KATA:1,2017-01-05T21:30:00Z,30.2583,-88.2131,10.27,1111122 
DISL,ioos:station:DISL:KATA:1,2017-01-05T22:00:00Z,30.2583,-88.2131,10.48,1111122 
DISL,ioos:station:DISL:KATA:1,2017-01-05T22:30:00Z,30.2583,-88.2131,10.61,1111122 
DISL,ioos:station:DISL:KATA:1,2017-01-05T23:00:00Z,30.2583,-88.2131,10.75,1111122 
DISL,ioos:station:DISL:KATA:1,2017-01-05T23:30:00Z,30.2583,-88.2131,11.05,1111122 
DISL,ioos:station:DISL:KATA:1,2017-01-06T00:00:00Z,30.2583,-88.2131,11.32,1111122 
DISL,ioos:station:DISL:KATA:1,2017-01-06T00:30:00Z,30.2583,-88.2131,11.46,1111122 
DISL,ioos:station:DISL:KATA:1,2017-01-06T01:00:00Z,30.2583,-88.2131,11.66,1111122 
DISL,ioos:station:DISL:KATA:1,2017-01-06T01:30:00Z,30.2583,-88.2131,11.83,1111122 
DISL,ioos:station:DISL:KATA:1,2017-01-06T02:00:00Z,30.2583,-88.2131,12.14,1111122 
DISL,ioos:station:DISL:KATA:1,2017-01-06T02:30:00Z,30.2583,-88.2131,12.24,1111122 
DISL,ioos:station:DISL:KATA:1,2017-01-06T03:00:00Z,30.2583,-88.2131,12.55,1111122 
DISL,ioos:station:DISL:KATA:1,2017-01-06T03:30:00Z,30.2583,-88.2131,12.72,1111122 
DISL,ioos:station:DISL:KATA:1,2017-01-06T04:00:00Z,30.2583,-88.2131,12.85,1111122 
DISL,ioos:station:DISL:KATA:1,2017-01-06T04:30:00Z,30.2583,-88.2131,12.82,1111122 
DISL,ioos:station:DISL:KATA:1,2017-01-06T05:00:00Z,30.2583,-88.2131,12.75,1111122 
DISL,ioos:station:DISL:KATA:1,2017-01-06T05:30:00Z,30.2583,-88.2131,12.95,1111122 
DISL,ioos:station:DISL:KATA:1,2017-01-06T06:00:00Z,30.2583,-88.2131,11.43,1111122 
DISL,ioos:station:DISL:KATA:1,2017-01-06T06:30:00Z,30.2583,-88.2131,10.51,1111122 
DISL,ioos:station:DISL:KATA:1,2017-01-06T07:00:00Z,30.2583,-88.2131,9.93,1111122 
DISL,ioos:station:DISL:KATA:1,2017-01-06T07:30:00Z,30.2583,-88.2131,9.42,1111122 
DISL,ioos:station:DISL:KATA:1,2017-01-06T08:00:00Z,30.2583,-88.2131,9.05,1111122 
DISL,ioos:station:DISL:KATA:1,2017-01-06T08:30:00Z,30.2583,-88.2131,8.68,1111122 
DISL,ioos:station:DISL:KATA:1,2017-01-06T09:00:00Z,30.2583,-88.2131,8.55,1111122 
DISL,ioos:station:DISL:KATA:1,2017-01-06T09:30:00Z,30.2583,-88.2131,8.38,1111122 
DISL,ioos:station:DISL:KATA:1,2017-01-06T10:00:00Z,30.2583,-88.2131,8.24,1111122 
DISL,ioos:station:DISL:KATA:1,2017-01-06T10:30:00Z,30.2583,-88.2131,7.904,1111122 
DISL,ioos:station:DISL:KATA:1,2017-01-06T11:00:00Z,30.2583,-88.2131,7.941,1111122 
DISL,ioos:station:DISL:KATA:1,2017-01-06T11:30:00Z,30.2583,-88.2131,7.808,1111122 
DISL,ioos:station:DISL:KATA:1,2017-01-06T12:00:00Z,30.2583,-88.2131,7.776,1111122 
DISL,ioos:station:DISL:KATA:1,2017-01-06T12:30:00Z,30.2583,-88.2131,7.538,1111122 
DISL,ioos:station:DISL:KATA:1,2017-01-06T13:00:00Z,30.2583,-88.2131,6.248,1111122 
DISL,ioos:station:DISL:KATA:1,2017-01-06T13:30:00Z,30.2583,-88.2131,5.263,1111122 
DISL,ioos:station:DISL:KATA:1,2017-01-06T14:00:00Z,30.2583,-88.2131,4.833,1111122 
DISL,ioos:station:DISL:KATA:1,2017-01-06T14:30:00Z,30.2583,-88.2131,4.735,1111122 
DISL,ioos:station:DISL:KATA:1,2017-01-06T15:00:00Z,30.2583,-88.2131,4.429,1111122 
DISL,ioos:station:DISL:KATA:1,2017-01-06T15:30:00Z,30.2583,-88.2131,4.973,1111122 
DISL,ioos:station:DISL:KATA:1,2017-01-06T16:00:00Z,30.2583,-88.2131,5.245,1111122 
DISL,ioos:station:DISL:KATA:1,2017-01-06T16:30:00Z,30.2583,-88.2131,5.109,1111122 
DISL,ioos:station:DISL:KATA:1,2017-01-06T17:00:00Z,30.2583,-88.2131,4.429,1111122 
DISL,ioos:station:DISL:KATA:1,2017-01-06T17:30:00Z,30.2583,-88.2131,4.124,1111122 
DISL,ioos:station:DISL:KATA:1,2017-01-06T18:00:00Z,30.2583,-88.2131,3.41,1111122 
DISL,ioos:station:DISL:KATA:1,2017-01-06T18:30:00Z,30.2583,-88.2131,2.907,1111122 
DISL,ioos:station:DISL:KATA:1,2017-01-06T19:00:00Z,30.2583,-88.2131,2.777,1111122 
DISL,ioos:station:DISL:KATA:1,2017-01-06T19:30:00Z,30.2583,-88.2131,2.404,1111122 
DISL,ioos:station:DISL:KATA:1,2017-01-06T20:00:00Z,30.2583,-88.2131,2.168,1111122 
DISL,ioos:station:DISL:KATA:1,2017-01-06T20:30:00Z,30.2583,-88.2131,1.896,1111122 
DISL,ioos:station:DISL:KATA:1,2017-01-06T21:00:00Z,30.2583,-88.2131,1.93,1111122 
DISL,ioos:station:DISL:KATA:1,2017-01-06T21:30:00Z,30.2583,-88.2131,2.066,1111122 
DISL,ioos:station:DISL:KATA:1,2017-01-06T22:00:00Z,30.2583,-88.2131,2.304,1111122 
DISL,ioos:station:DISL:KATA:1,2017-01-06T22:30:00Z,30.2583,-88.2131,2.236,1111122 
DISL,ioos:station:DISL:KATA:1,2017-01-06T23:00:00Z,30.2583,-88.2131,2.27,1111122 
DISL,ioos:station:DISL:KATA:1,2017-01-06T23:30:00Z,30.2583,-88.2131,2.066,1111122 
DISL,ioos:station:DISL:KATA:1,2017-01-07T00:00:00Z,30.2583,-88.2131,2.236,1111122 
DISL,ioos:station:DISL:KATA:1,2017-01-07T00:30:00Z,30.2583,-88.2131,1.556,1111122 
DISL,ioos:station:DISL:KATA:1,2017-01-07T01:00:00Z,30.2583,-88.2131,1.42,1111122 
DISL,ioos:station:DISL:KATA:1,2017-01-07T01:30:00Z,30.2583,-88.2131,1.319,1111122 
DISL,ioos:station:DISL:KATA:1,2017-01-07T02:00:00Z,30.2583,-88.2131,1.086,1111122 
DISL,ioos:station:DISL:KATA:1,2017-01-07T02:30:00Z,30.2583,-88.2131,1.259,1111122 
DISL,ioos:station:DISL:KATA:1,2017-01-07T03:00:00Z,30.2583,-88.2131,0.819,1111122 
DISL,ioos:station:DISL:KATA:1,2017-01-07T03:30:00Z,30.2583,-88.2131,0.685,1111122 
DISL,ioos:station:DISL:KATA:1,2017-01-07T04:00:00Z,30.2583,-88.2131,0.856,1111122 
DISL,ioos:station:DISL:KATA:1,2017-01-07T04:30:00Z,30.2583,-88.2131,0.618,1111122 
DISL,ioos:station:DISL:KATA:1,2017-01-07T05:00:00Z,30.2583,-88.2131,0.415,1111122 
DISL,ioos:station:DISL:KATA:1,2017-01-07T05:30:00Z,30.2583,-88.2131,0.483,1111122 
DISL,ioos:station:DISL:KATA:1,2017-01-07T06:00:00Z,30.2583,-88.2131,0.789,1111122 
DISL,ioos:station:DISL:KATA:1,2017-01-07T06:30:00Z,30.2583,-88.2131,0.041,1111122 